Patuxent River, MD

4:48 AM EDT on September 25, 2016 (GMT -0400)
Patuxent River Naval Air Station

Weather History for KNHK - March, 2013

Change the Weather History Date:

Monday, March 25, 2013

  Actual Average Record
Temperature  
Mean Temperature 36 °F -  
Max Temperature 39 °F 55 °F 77 °F (2016)
Min Temperature 33 °F 38 °F 25 °F (2009)
Degree Days  
Heating Degree Days 29    
Moisture  
Dew Point 33 °F    
Average Humidity 87    
Maximum Humidity 93    
Minimum Humidity 81    
Precipitation  
Precipitation 0.35 in - - ()
Sea Level Pressure  
Sea Level Pressure 29.57 in    
Wind  
Wind Speed 9 mph (NW)    
Max Wind Speed 14 mph    
Max Gust Speed -    
Visibility 6 miles    
Events Rain , Snow    
Averages and records for this station are not official NWS values.
T = Trace of Precipitation, MM = Missing Value Source: NWS Daily Summary

Daily Weather History Graph

Daily Weather History Graph

Search for Another Location

Airport or City:

Trip Planner

Search our weather history database for the weather conditions in past years. The results will help you decide how hot, cold, wet, or windy it might be!

Date:

Astronomy

Mar. 25, 2013 Rise Set
Actual Time 7:01 AM EDT 7:22 PM EDT
Civil Twilight 6:34 AM EDT 7:48 PM EDT
Nautical Twilight 6:03 AM EDT 8:20 PM EDT
Astronomical Twilight 5:32 AM EDT 8:51 PM EDT
Moon 5:52 PM EDT 5:42 AM EDT
Length of Visible Light 13h 14m
Length of Day
12h 21m
Waxing Gibbous, 96% of the Moon is Illuminated
Mar 25
Waxing Gibbous
Mar 27
Full
Apr 3
Last Quarter
Apr 10
New
Apr 18
First Quarter

Hourly Weather History & Observations

Time (EDT) Temp. Windchill Dew Point Humidity Pressure Visibility Wind Dir Wind Speed Gust Speed Precip Events Conditions
12:52 AM 35.1 °F 29.3 °F 30.9 °F 85% 29.61 in 8.0 mi NE 6.9 mph - 0.00 in   Overcast
1:49 AM 35.6 °F 27.5 °F 30.2 °F 81% 29.59 in 9.0 mi NE 11.5 mph - N/A   Overcast
1:52 AM 36.0 °F 28.5 °F 32.0 °F 86% 29.59 in 8.0 mi NE 10.4 mph - N/A   Overcast
2:01 AM 35.6 °F 29.2 °F 32.0 °F 87% 29.58 in 8.0 mi NE 8.1 mph - N/A   Overcast
2:52 AM 36.0 °F 29.6 °F 33.1 °F 89% 29.57 in 3.0 mi NE 8.1 mph - 0.00 in Rain Light Rain
3:52 AM 36.0 °F 29.6 °F 33.1 °F 89% 29.53 in 3.0 mi ENE 8.1 mph - 0.02 in Rain Light Rain
4:52 AM 35.1 °F 27.9 °F 32.0 °F 89% 29.55 in 3.0 mi WNW 9.2 mph - 0.04 in Rain Rain
4:59 AM 33.8 °F 25.3 °F 30.2 °F 87% 29.55 in 2.5 mi WNW 11.5 mph - 0.02 in Snow Light Snow
5:10 AM 33.8 °F 25.8 °F 30.2 °F 87% 29.55 in 2.5 mi WNW 10.4 mph - 0.04 in Snow Light Snow
5:52 AM 33.1 °F 25.5 °F 30.9 °F 92% 29.53 in 1.8 mi NW 9.2 mph - 0.09 in Snow Light Snow
6:44 AM 33.8 °F 25.8 °F 30.2 °F 87% 29.52 in 2.5 mi NW 10.4 mph - 0.02 in Snow Light Snow
6:52 AM 34.0 °F 26.0 °F 30.9 °F 89% 29.52 in 3.0 mi NW 10.4 mph - 0.02 in Snow Light Snow
7:52 AM 34.0 °F 26.6 °F 30.9 °F 89% 29.52 in 2.5 mi NW 9.2 mph - 0.03 in Snow Light Snow
8:52 AM 34.0 °F 26.6 °F 32.0 °F 92% 29.51 in 2.5 mi NNW 9.2 mph - 0.04 in Snow Light Snow
9:24 AM 35.6 °F 28.6 °F 32.0 °F 87% 29.51 in 5.0 mi NNW 9.2 mph - 0.00 in Snow Light Snow
9:52 AM 36.0 °F 29.0 °F 33.1 °F 89% 29.50 in 6.0 mi NNW 9.2 mph - 0.01 in Rain Light Rain
10:52 AM 37.0 °F 30.4 °F 34.0 °F 89% 29.50 in 6.0 mi NNW 9.2 mph - 0.00 in Rain Light Rain
11:52 AM 37.9 °F 30.9 °F 34.0 °F 86% 29.50 in 6.0 mi NW 10.4 mph - 0.00 in   Light Drizzle
12:52 PM 37.9 °F 30.5 °F 34.0 °F 86% 29.51 in 6.0 mi WNW 11.5 mph - 0.00 in   Light Drizzle
1:52 PM 37.9 °F 31.5 °F 34.0 °F 86% 29.51 in 6.0 mi WNW 9.2 mph - 0.00 in   Light Drizzle
2:52 PM 39.0 °F 31.0 °F 34.0 °F 82% 29.50 in 6.0 mi NW 13.8 mph - 0.01 in Rain Light Rain
3:52 PM 39.0 °F 31.4 °F 34.0 °F 82% 29.51 in 6.0 mi NW 12.7 mph - 0.00 in Rain Light Rain
4:22 PM 39.2 °F 31.6 °F 33.8 °F 81% 29.51 in 10.0 mi NW 12.7 mph - 0.00 in Rain Light Rain
4:52 PM 39.0 °F 31.0 °F 34.0 °F 82% 29.53 in 10.0 mi WNW 13.8 mph - 0.00 in Rain Light Rain
5:52 PM 37.9 °F 30.9 °F 34.0 °F 86% 29.56 in 8.0 mi WNW 10.4 mph - 0.01 in Rain Light Rain
6:52 PM 37.0 °F 28.9 °F 33.1 °F 86% 29.60 in 6.0 mi WNW 12.7 mph - 0.04 in Rain Light Rain
7:52 PM 37.0 °F 30.4 °F 33.1 °F 86% 29.64 in 10.0 mi NW 9.2 mph - 0.01 in Rain Light Rain
8:52 PM 37.0 °F 31.0 °F 33.1 °F 86% 29.66 in 10.0 mi WNW 8.1 mph - 0.00 in Rain Light Rain
9:52 PM 36.0 °F 30.3 °F 33.1 °F 89% 29.69 in 6.0 mi West 6.9 mph - 0.02 in Rain Light Rain
10:52 PM 36.0 °F 30.3 °F 33.1 °F 89% 29.70 in 7.0 mi West 6.9 mph - 0.01 in Rain Light Rain
11:19 PM 35.6 °F 30.7 °F 33.8 °F 93% 29.69 in 9.0 mi West 5.8 mph - 0.00 in   Overcast
11:44 PM 35.6 °F 29.9 °F 32.0 °F 87% 29.69 in 8.0 mi West 6.9 mph - 0.00 in   Overcast
11:52 PM 35.1 °F 29.3 °F 32.0 °F 89% 29.70 in 8.0 mi West 6.9 mph - 0.00 in   Overcast